Hermiston, OR

8:24 AM PST on December 08, 2016 (GMT -0800)
Hermiston Municipal

Weather History for KHRI - September, 2013

Change the Weather History Date:

Monday, September 16, 2013

  Actual Average Record
Temperature  
Mean Temperature 70 °F 63 °F  
Max Temperature 78 °F 80 °F 95 °F (1938)
Min Temperature 61 °F 46 °F 28 °F (1936)
Cooling Degree Days 4    
Growing Degree Days 20 (Base 50)    
Moisture  
Dew Point 51 °F    
Average Humidity 57    
Maximum Humidity 75    
Minimum Humidity 35    
Precipitation  
Precipitation 0.00 in 0.01 in 0.55 in (1959)
Month to date precipitation 0.22  
Year to date precipitation 6.84  
Sea Level Pressure  
Sea Level Pressure 29.83 in    
Wind  
Wind Speed 15 mph (SW)    
Max Wind Speed 21 mph    
Max Gust Speed 31 mph    
Visibility 10 miles    
Events      
T = Trace of Precipitation, MM = Missing Value Source: NWS Daily Summary

Daily Weather History Graph

Daily Weather History Graph

Search for Another Location

Airport or City:

Trip Planner

Search our weather history database for the weather conditions in past years. The results will help you decide how hot, cold, wet, or windy it might be!

Date:

Astronomy

Sep. 16, 2013 Rise Set
Actual Time 6:36 AM PDT 7:05 PM PDT
Civil Twilight 6:07 AM PDT 7:35 PM PDT
Nautical Twilight 5:31 AM PDT 8:10 PM PDT
Astronomical Twilight 4:54 AM PDT 8:47 PM PDT
Moon 5:23 PM PDT (9/16) 3:21 AM PDT (9/16)
Length of Visible Light 13h 28m
Length of Day
12h 28m
Waxing Gibbous, 91% of the Moon is Illuminated
Sep 16
Waxing Gibbous
Sep 19
Full
Sep 26
Last Quarter
Oct 4
New
Oct 11
First Quarter

Hourly Weather History & Observations

Time (PDT) Temp. Dew Point Humidity Pressure Visibility Wind Dir Wind Speed Gust Speed Precip Events Conditions
12:53 AM 64.0 °F 55.0 °F 73% 29.75 in 10.0 mi SW 13.8 mph 21.9 mph N/A   Clear
1:53 AM 64.0 °F 55.0 °F 73% 29.76 in 10.0 mi SW 15.0 mph - N/A   Clear
2:53 AM 63.0 °F 54.0 °F 72% 29.78 in 10.0 mi SW 17.3 mph 24.2 mph N/A   Partly Cloudy
3:53 AM 63.0 °F 53.1 °F 70% 29.79 in 10.0 mi SW 12.7 mph - N/A   Clear
4:53 AM 62.1 °F 53.1 °F 72% 29.80 in 10.0 mi SW 15.0 mph 23.0 mph N/A   Partly Cloudy
5:53 AM 62.1 °F 53.1 °F 72% 29.84 in 10.0 mi SW 15.0 mph 23.0 mph N/A   Partly Cloudy
6:53 AM 61.0 °F 53.1 °F 75% 29.85 in 10.0 mi SW 15.0 mph - N/A   Scattered Clouds
7:53 AM 63.0 °F 52.0 °F 67% 29.86 in 10.0 mi SW 19.6 mph 31.1 mph N/A   Overcast
8:53 AM 66.0 °F 52.0 °F 60% 29.88 in 10.0 mi SW 17.3 mph 25.3 mph N/A   Clear
9:53 AM 69.1 °F 51.1 °F 53% 29.89 in 10.0 mi SW 16.1 mph 27.6 mph N/A   Clear
10:53 AM 71.1 °F 50.0 °F 47% 29.89 in 10.0 mi SW 17.3 mph 28.8 mph N/A   Clear
11:53 AM 73.0 °F 50.0 °F 44% 29.89 in 10.0 mi WSW 19.6 mph 25.3 mph N/A   Clear
12:53 PM 75.9 °F 48.9 °F 38% 29.88 in 10.0 mi WSW 12.7 mph 24.2 mph N/A   Clear
1:53 PM 75.9 °F 50.0 °F 40% 29.86 in 10.0 mi West 17.3 mph 27.6 mph N/A   Clear
2:53 PM 78.1 °F 48.0 °F 35% 29.84 in 10.0 mi West 20.7 mph - N/A   Clear
3:53 PM 78.1 °F 48.9 °F 36% 29.82 in 10.0 mi West 15.0 mph - N/A   Clear
4:53 PM 77.0 °F 48.9 °F 37% 29.81 in 10.0 mi West 17.3 mph 20.7 mph N/A   Clear
5:53 PM 75.0 °F 48.9 °F 40% 29.81 in 10.0 mi WSW 13.8 mph - N/A   Clear
6:53 PM 71.1 °F 50.0 °F 47% 29.81 in 10.0 mi WSW 9.2 mph - N/A   Clear
7:53 PM 68.0 °F 50.0 °F 52% 29.81 in 10.0 mi SW 9.2 mph - N/A   Clear
8:53 PM 63.0 °F 51.1 °F 65% 29.81 in 10.0 mi SSW 10.4 mph - N/A   Clear
9:53 PM 63.0 °F 51.1 °F 65% 29.82 in 10.0 mi SW 11.5 mph - N/A   Clear
10:53 PM 61.0 °F 51.1 °F 70% 29.83 in 10.0 mi SSW 9.2 mph - N/A   Clear
11:53 PM 61.0 °F 51.1 °F 70% 29.83 in 10.0 mi SSW 6.9 mph - N/A   Clear